Murray, KY

5:24 AM CST on January 21, 2018 (GMT -0600)
Kyle-Oakley

Weather History for KCEY - February, 2012

Change the Weather History Date:

Wednesday, February 8, 2012

  Actual Average (KPAH) Record (KPAH)
Temperature  
Mean Temperature 36 °F -  
Max Temperature 42 °F 41 °F 70 °F (2001)
Min Temperature 30 °F 22 °F -1 °F (1985)
Degree Days  
Heating Degree Days 29    
Moisture  
Dew Point 32 °F    
Average Humidity 82    
Maximum Humidity 93    
Minimum Humidity 70    
Precipitation  
Precipitation 0.00 in - - ()
Sea Level Pressure  
Sea Level Pressure 30.35 in    
Wind  
Wind Speed 8 mph (NW)    
Max Wind Speed 14 mph    
Max Gust Speed -    
Visibility 9 miles    
Events      
Averages and records for this station are not official NWS values.
T = Trace of Precipitation, MM = Missing Value Source: NWS Daily Summary

Daily Weather History Graph

Daily Weather History Graph

Search for Another Location

Airport or City:

Trip Planner

Search our weather history database for the weather conditions in past years. The results will help you decide how hot, cold, wet, or windy it might be!

Date:

Astronomy

Feb. 08, 2012 Rise Set
Actual Time 6:49 AM CST 5:26 PM CST
Civil Twilight 6:22 AM CST 5:53 PM CST
Nautical Twilight 5:52 AM CST 6:23 PM CST
Astronomical Twilight 5:21 AM CST 6:53 PM CST
Moon 6:41 PM CST (2/8) 6:55 AM CST (2/8)
Length of Visible Light 11h 30m
Length of Day
10h 36m
Full, 99% of the Moon is Illuminated
Feb 8
Full
Feb 14
Last Quarter
Feb 21
New
Feb 29
First Quarter
Mar 8
Full

Hourly Weather History & Observations

Time (CST) Temp. Windchill Dew Point Humidity Pressure Visibility Wind Dir Wind Speed Gust Speed Precip Events Conditions
12:15 AM 42.8 °F 37.5 °F 35.6 °F 76% 30.27 in 10.0 mi WNW 9.2 mph - N/A   Overcast
12:35 AM 42.8 °F 38.0 °F 35.6 °F 76% 30.28 in 10.0 mi WNW 8.1 mph - N/A   Overcast
12:55 AM 41.0 °F 34.7 °F 35.6 °F 81% 30.29 in 9.0 mi WNW 10.4 mph - N/A   Overcast
1:15 AM 41.0 °F 36.4 °F 35.6 °F 81% 30.29 in 10.0 mi NW 6.9 mph - N/A   Overcast
1:35 AM 41.0 °F 37.1 °F 37.4 °F 87% 30.29 in 9.0 mi WNW 5.8 mph - N/A   Overcast
1:55 AM 41.0 °F 37.1 °F 37.4 °F 87% 30.29 in 8.0 mi WNW 5.8 mph - N/A   Overcast
2:15 AM 39.2 °F 37.0 °F 37.4 °F 93% 30.28 in 10.0 mi West 3.5 mph - N/A   Overcast
2:55 AM 39.2 °F 37.0 °F 37.4 °F 93% 30.28 in 10.0 mi West 3.5 mph - N/A   Overcast
3:35 AM 39.2 °F 35.9 °F 37.4 °F 93% 30.27 in 9.0 mi West 4.6 mph - N/A   Overcast
3:55 AM 39.2 °F 34.2 °F 37.4 °F 93% 30.27 in 7.0 mi WNW 6.9 mph - N/A   Overcast
4:15 AM 39.2 °F 35.0 °F 37.4 °F 93% 30.27 in 8.0 mi NW 5.8 mph - N/A   Overcast
4:35 AM 39.2 °F 35.0 °F 37.4 °F 93% 30.28 in 6.0 mi NW 5.8 mph - N/A   Overcast
4:55 AM 39.2 °F 34.2 °F 37.4 °F 93% 30.28 in 5.0 mi NW 6.9 mph - N/A   Overcast
5:15 AM 39.2 °F 32.5 °F 37.4 °F 93% 30.28 in 5.0 mi NW 10.4 mph - N/A   Overcast
5:35 AM 39.2 °F 32.5 °F 37.4 °F 93% 30.29 in 5.0 mi NNW 10.4 mph - N/A   Overcast
5:55 AM 39.2 °F 33.0 °F 37.4 °F 93% 30.30 in 6.0 mi NW 9.2 mph - N/A   Overcast
6:35 AM 37.4 °F 29.8 °F 35.6 °F 93% 30.31 in 6.0 mi NW 11.5 mph - N/A   Overcast
6:55 AM 37.4 °F 30.8 °F 35.6 °F 93% 30.32 in 6.0 mi NW 9.2 mph - N/A   Overcast
7:15 AM 37.4 °F 29.3 °F 35.6 °F 93% 30.32 in 8.0 mi NNW 12.7 mph - N/A   Overcast
7:35 AM 37.4 °F 30.3 °F 33.8 °F 87% 30.33 in 8.0 mi NNW 10.4 mph - N/A   Overcast
7:55 AM 35.6 °F 27.5 °F 33.8 °F 93% 30.34 in 10.0 mi NNW 11.5 mph - N/A   Overcast
8:15 AM 37.4 °F 32.1 °F 33.8 °F 87% 30.35 in 10.0 mi NW 6.9 mph - N/A   Overcast
8:35 AM 37.4 °F 30.8 °F 32.0 °F 81% 30.36 in 10.0 mi NW 9.2 mph - N/A   Overcast
8:55 AM 35.6 °F 27.5 °F 32.0 °F 87% 30.36 in 7.0 mi NW 11.5 mph - N/A   Overcast
9:15 AM 35.6 °F 27.5 °F 32.0 °F 87% 30.37 in 7.0 mi NW 11.5 mph - N/A   Overcast
9:35 AM 37.4 °F 29.3 °F 32.0 °F 81% 30.38 in 9.0 mi NW 12.7 mph - N/A   Overcast
9:55 AM 37.4 °F 30.3 °F 32.0 °F 81% 30.38 in 8.0 mi NW 10.4 mph - N/A   Overcast
10:15 AM 37.4 °F 29.8 °F 32.0 °F 81% 30.39 in 7.0 mi NNW 11.5 mph - N/A   Overcast
10:35 AM 35.6 °F 28.6 °F 32.0 °F 87% 30.39 in 6.0 mi NNW 9.2 mph - N/A   Overcast
10:55 AM 35.6 °F 28.0 °F 32.0 °F 87% 30.38 in 5.0 mi NNW 10.4 mph - N/A   Overcast
11:15 AM 37.4 °F 30.3 °F 32.0 °F 81% 30.38 in 6.0 mi NNW 10.4 mph - N/A   Overcast
11:35 AM 37.4 °F 31.4 °F 32.0 °F 81% 30.38 in 6.0 mi NNW 8.1 mph - N/A   Overcast
11:55 AM 35.6 °F 28.6 °F 32.0 °F 87% 30.36 in 5.0 mi North 9.2 mph - N/A   Overcast
12:15 PM 37.4 °F 30.8 °F 32.0 °F 81% 30.37 in 5.0 mi NNW 9.2 mph - N/A   Overcast
12:35 PM 37.4 °F 29.8 °F 32.0 °F 81% 30.37 in 7.0 mi NW 11.5 mph - N/A   Overcast
12:55 PM 37.4 °F 32.1 °F 30.2 °F 75% 30.37 in 8.0 mi NNW 6.9 mph - N/A   Overcast
1:15 PM 37.4 °F 31.4 °F 30.2 °F 75% 30.37 in 7.0 mi NW 8.1 mph - N/A   Overcast
1:35 PM 37.4 °F 32.8 °F 30.2 °F 75% 30.37 in 8.0 mi WNW 5.8 mph - N/A   Overcast
1:55 PM 37.4 °F 32.8 °F 30.2 °F 75% 30.36 in 8.0 mi NW 5.8 mph - N/A   Overcast
2:15 PM 37.4 °F 28.9 °F 30.2 °F 75% 30.37 in 8.0 mi NNW 13.8 mph - N/A   Overcast
2:35 PM 37.4 °F 30.3 °F 30.2 °F 75% 30.36 in 8.0 mi NNW 10.4 mph - N/A   Overcast
2:55 PM 37.4 °F 32.1 °F 30.2 °F 75% 30.36 in 9.0 mi NNW 6.9 mph - N/A   Overcast
3:55 PM 37.4 °F 31.4 °F 28.4 °F 70% 30.37 in 10.0 mi NNW 8.1 mph - N/A   Overcast
4:15 PM 37.4 °F 31.4 °F 28.4 °F 70% 30.37 in 10.0 mi NNW 8.1 mph - N/A   Overcast
4:55 PM 37.4 °F 32.1 °F 28.4 °F 70% 30.38 in 10.0 mi NW 6.9 mph - N/A   Overcast
5:15 PM 37.4 °F 32.1 °F 28.4 °F 70% 30.37 in 10.0 mi NNW 6.9 mph - N/A   Overcast
5:35 PM 35.6 °F 28.6 °F 28.4 °F 75% 30.37 in 10.0 mi NNW 9.2 mph - N/A   Overcast
5:55 PM 35.6 °F 29.2 °F 28.4 °F 75% 30.37 in 10.0 mi NNW 8.1 mph - N/A   Overcast
6:15 PM 35.6 °F 29.9 °F 28.4 °F 75% 30.37 in 10.0 mi NW 6.9 mph - N/A   Overcast
6:55 PM 35.6 °F 29.9 °F 28.4 °F 75% 30.38 in 10.0 mi WNW 6.9 mph - N/A   Overcast
7:15 PM 33.8 °F 28.6 °F 28.4 °F 81% 30.38 in 10.0 mi WNW 5.8 mph - N/A   Mostly Cloudy
7:35 PM 32.0 °F 27.5 °F 28.4 °F 87% 30.38 in 10.0 mi West 4.6 mph - N/A   Partly Cloudy
7:55 PM 32.0 °F 27.5 °F 26.6 °F 80% 30.38 in 10.0 mi WNW 4.6 mph - N/A   Clear
8:15 PM 32.0 °F 27.5 °F 26.6 °F 80% 30.38 in 10.0 mi WNW 4.6 mph - N/A   Clear
8:35 PM 32.0 °F 28.7 °F 26.6 °F 80% 30.38 in 10.0 mi NW 3.5 mph - N/A   Clear
8:55 PM 32.0 °F - 26.6 °F 80% 30.39 in 10.0 mi Calm Calm - N/A   Clear
9:15 PM 32.0 °F 28.7 °F 26.6 °F 80% 30.39 in 10.0 mi WNW 3.5 mph - N/A   Mostly Cloudy
9:35 PM 32.0 °F 27.5 °F 26.6 °F 80% 30.39 in 10.0 mi NW 4.6 mph - N/A   Mostly Cloudy
9:55 PM 32.0 °F 28.7 °F 26.6 °F 80% 30.39 in 10.0 mi WNW 3.5 mph - N/A   Mostly Cloudy
10:15 PM 32.0 °F 27.5 °F 26.6 °F 80% 30.40 in 10.0 mi WNW 4.6 mph - N/A   Overcast
10:55 PM 32.0 °F 27.5 °F 26.6 °F 80% 30.39 in 10.0 mi WNW 4.6 mph - N/A   Overcast
11:15 PM 30.2 °F 25.4 °F 26.6 °F 86% 30.39 in 10.0 mi NW 4.6 mph - N/A   Overcast
11:35 PM 30.2 °F 26.7 °F 26.6 °F 86% 30.39 in 10.0 mi WNW 3.5 mph - N/A   Overcast
11:55 PM 32.0 °F 27.5 °F 26.6 °F 80% 30.39 in 10.0 mi NW 4.6 mph - N/A   Overcast